Check out our new BloomSky Weather System.

Active alerts


No alerts


Thunder radar  blitzortung!


Rain radar more information rain snow radar


Visit our other weather sites:

Template documentation
and downloads

And another site



Weather Underground History page Text

Daily Summary for February 3, 2018 Units:  Metric    English   Both
« Previous Day
Next Day »
Daily Weekly Monthly Yearly Custom
  High: Low: Average:
Temperature: -17.8 °C 7.6 °C 10.1 °C
Dew Point: -17.8 °C -0.4 °C 6.5 °C
Humidity: Humidity % 52 % 80 %
Wind Speed: 0 km/h 0 km/h 1.8 km/h
Wind Gust: 0 km/h - -
Wind:- - ESE
Pressure: 0 hPa 1011.7 hPa -
Precipitation: 2.03 mm    
Historical Graphs
 
 
Tabular Data for February 3, 2018
Time Temperature Dew Point Pressure Wind Wind Speed Wind Gust Humidity Rainfall Rate (Hourly)
-17.8 °C -17.8 °C 0 hPa Calm     Humidity % 0 mm
00:00 8.9 °C -0.2 °C 1026.6 hPa East 6.4 km/h 6.4 km/h 53 % 0 mm
00:05 8.9 °C -0.2 °C 1027 hPa Calm   6.4 km/h 53 % 0 mm
00:10 8.9 °C -0.2 °C 1026.6 hPa ESE 4.8 km/h 6.4 km/h 53 % 0 mm
00:15 8.9 °C -0.2 °C 1026.6 hPa ESE 1.6 km/h 6.4 km/h 53 % 0 mm
00:20 8.9 °C -0.2 °C 1026.6 hPa East 1.6 km/h 6.4 km/h 53 % 0 mm
00:25 8.9 °C -0.2 °C 1026.6 hPa Calm   6.4 km/h 53 % 0 mm
00:30 8.9 °C -0.2 °C 1026.3 hPa SE 3.2 km/h 6.4 km/h 53 % 0 mm
00:35 8.9 °C -0.2 °C 1026.3 hPa Calm   6.4 km/h 53 % 0 mm
00:40 8.9 °C -0.2 °C 1026.3 hPa East 1.6 km/h 4.8 km/h 53 % 0 mm
00:45 8.9 °C -0.4 °C 1026.3 hPa Calm   6.4 km/h 52 % 0 mm
00:50 8.9 °C -0.4 °C 1026.3 hPa ESE 3.2 km/h 6.4 km/h 52 % 0 mm
00:55 8.9 °C -0.2 °C 1026 hPa NW 1.6 km/h 6.4 km/h 53 % 0 mm
01:00 8.9 °C -0.2 °C 1026.3 hPa East 3.2 km/h 6.4 km/h 53 % 0 mm
01:05 8.9 °C -0.2 °C 1026.3 hPa East 3.2 km/h 6.4 km/h 53 % 0 mm
01:10 8.8 °C -0.3 °C 1026.3 hPa ENE 1.6 km/h 6.4 km/h 53 % 0 mm
01:15 8.8 °C 0 °C 1026.3 hPa ESE 1.6 km/h 6.4 km/h 54 % 0 mm
01:20 8.8 °C 0.3 °C 1026.3 hPa Calm   6.4 km/h 55 % 0 mm
01:25 8.7 °C 0.4 °C 1026 hPa Calm   6.4 km/h 56 % 0 mm
01:30 8.7 °C 0.4 °C 1026.3 hPa Calm   4.8 km/h 56 % 0 mm
01:35 8.7 °C 0.4 °C 1026 hPa ENE 1.6 km/h 4.8 km/h 56 % 0 mm
01:40 8.7 °C 0.4 °C 1026 hPa Calm   4.8 km/h 56 % 0 mm
01:45 8.7 °C 0.4 °C 1026 hPa NNW 1.6 km/h 4.8 km/h 56 % 0 mm
01:50 8.7 °C 0.2 °C 1026 hPa ESE 3.2 km/h 4.8 km/h 55 % 0 mm
01:55 8.7 °C 0.2 °C 1025.6 hPa East 3.2 km/h 6.4 km/h 55 % 0 mm
02:00 8.7 °C 0.2 °C 1025.6 hPa East 1.6 km/h 6.4 km/h 55 % 0 mm
02:05 8.7 °C 0.2 °C 1025.6 hPa East 1.6 km/h 6.4 km/h 55 % 0 mm
02:11 8.7 °C 0.2 °C 1025.3 hPa ENE 1.6 km/h 6.4 km/h 55 % 0 mm
02:16 8.7 °C 0.2 °C 1025.6 hPa Calm   3.2 km/h 55 % 0 mm
02:21 8.6 °C 0.3 °C 1025.3 hPa ENE 1.6 km/h 3.2 km/h 56 % 0 mm
02:26 8.6 °C 0.1 °C 1025.3 hPa Calm   6.4 km/h 55 % 0 mm
02:31 8.6 °C 0.1 °C 1025.3 hPa ENE 4.8 km/h 6.4 km/h 55 % 0 mm
02:36 8.6 °C 0.1 °C 1025.3 hPa East 1.6 km/h 6.4 km/h 55 % 0 mm
02:41 8.6 °C 0.1 °C 1024.9 hPa ENE 6.4 km/h 6.4 km/h 55 % 0 mm
02:46 8.6 °C 0.1 °C 1024.9 hPa Calm   6.4 km/h 55 % 0 mm
02:51 8.6 °C 0.1 °C 1024.9 hPa Calm   6.4 km/h 55 % 0 mm
02:56 8.6 °C 0.3 °C 1024.9 hPa East 3.2 km/h 6.4 km/h 56 % 0 mm
03:01 8.5 °C 0.2 °C 1024.9 hPa NE 4.8 km/h 4.8 km/h 56 % 0 mm
03:06 8.5 °C 0 °C 1024.9 hPa Calm   6.4 km/h 55 % 0 mm
03:11 8.4 °C -0.1 °C 1024.9 hPa ENE 3.2 km/h 6.4 km/h 55 % 0 mm
03:16 8.4 °C -0.1 °C 1024.9 hPa North 1.6 km/h 6.4 km/h 55 % 0 mm
03:21 8.4 °C 0.1 °C 1024.9 hPa East 1.6 km/h 6.4 km/h 56 % 0 mm
03:26 8.4 °C 0.1 °C 1024.9 hPa ESE 1.6 km/h 6.4 km/h 56 % 0 mm
03:31 8.4 °C 0.1 °C 1024.9 hPa East 1.6 km/h 4.8 km/h 56 % 0 mm
03:36 8.4 °C 0.1 °C 1024.9 hPa Calm   8 km/h 56 % 0 mm
03:41 8.3 °C 0 °C 1024.9 hPa NNE 1.6 km/h 9.7 km/h 56 % 0 mm
03:46 8.3 °C 0.3 °C 1024.9 hPa Calm   9.7 km/h 57 % 0 mm
03:51 8.3 °C 0 °C 1024.6 hPa East 1.6 km/h 9.7 km/h 56 % 0 mm
03:56 8.3 °C 0 °C 1024.6 hPa ENE 3.2 km/h 6.4 km/h 56 % 0 mm
04:01 8.3 °C 0 °C 1024.6 hPa ENE 1.6 km/h 4.8 km/h 56 % 0 mm
04:06 8.3 °C 0 °C 1024.6 hPa East 3.2 km/h 4.8 km/h 56 % 0 mm
04:11 8.3 °C 0.3 °C 1024.3 hPa Calm   4.8 km/h 57 % 0 mm
04:16 8.3 °C 0.3 °C 1024.3 hPa Calm   4.8 km/h 57 % 0 mm
04:21 8.3 °C 0.3 °C 1024.3 hPa Calm   6.4 km/h 57 % 0 mm
04:26 8.3 °C 0.5 °C 1024.3 hPa North 1.6 km/h 6.4 km/h 58 % 0 mm
04:31 8.3 °C 0.5 °C 1024.3 hPa SE 1.6 km/h 6.4 km/h 58 % 0 mm
04:36 8.3 °C 0.3 °C 1024.3 hPa Calm   4.8 km/h 57 % 0 mm
04:41 8.3 °C 0.3 °C 1024.3 hPa Calm   4.8 km/h 57 % 0 mm
04:46 8.3 °C 0.3 °C 1024.3 hPa Calm   8 km/h 57 % 0 mm
04:51 8.3 °C 0.3 °C 1024.3 hPa East 1.6 km/h 8 km/h 57 % 0 mm
04:56 8.3 °C 0.3 °C 1023.9 hPa ESE 4.8 km/h 8 km/h 57 % 0 mm
05:01 8.3 °C 0.3 °C 1023.9 hPa ENE 1.6 km/h 6.4 km/h 57 % 0 mm
05:06 8.3 °C 0.3 °C 1023.9 hPa Calm   6.4 km/h 57 % 0 mm
05:11 8.3 °C 0.5 °C 1023.9 hPa Calm   6.4 km/h 58 % 0 mm
05:16 8.3 °C 0.3 °C 1023.6 hPa SSE 1.6 km/h 4.8 km/h 57 % 0 mm
05:21 8.3 °C 0.3 °C 1023.6 hPa ENE 3.2 km/h 6.4 km/h 57 % 0 mm
05:26 8.3 °C 0.3 °C 1023.2 hPa ESE 3.2 km/h 6.4 km/h 57 % 0 mm
05:31 8.2 °C 0.2 °C 1023.6 hPa Calm   6.4 km/h 57 % 0 mm
05:36 8.2 °C 0.4 °C 1023.6 hPa Calm   6.4 km/h 58 % 0 mm
05:41 8.3 °C 0.5 °C 1023.6 hPa Calm   6.4 km/h 58 % 0 mm
05:46 8.3 °C 0.5 °C 1023.6 hPa ESE 3.2 km/h 4.8 km/h 58 % 0 mm
05:51 8.3 °C 0.5 °C 1023.6 hPa Calm   4.8 km/h 58 % 0 mm
05:56 8.3 °C 0.5 °C 1023.6 hPa East 3.2 km/h 3.2 km/h 58 % 0 mm
06:01 8.3 °C 0.5 °C 1023.6 hPa Calm   4.8 km/h 58 % 0 mm
06:06 8.3 °C 0.8 °C 1023.6 hPa East 1.6 km/h 4.8 km/h 59 % 0 mm
06:11 8.3 °C 0.8 °C 1023.6 hPa Calm   4.8 km/h 59 % 0 mm
06:16 8.3 °C 0.8 °C 1023.6 hPa Calm   4.8 km/h 59 % 0 mm
06:22 8.2 °C 0.7 °C 1023.2 hPa ESE 1.6 km/h 4.8 km/h 59 % 0 mm
06:27 8.3 °C 1 °C 1023.2 hPa East 1.6 km/h 4.8 km/h 60 % 0 mm
06:32 8.3 °C 0.8 °C 1023.2 hPa ENE 6.4 km/h 6.4 km/h 59 % 0 mm
06:37 8.2 °C 0.7 °C 1023.2 hPa ENE 3.2 km/h 6.4 km/h 59 % 0 mm
06:42 8.2 °C 0.9 °C 1023.2 hPa Calm   6.4 km/h 60 % 0 mm
06:47 8.2 °C 0.9 °C 1023.2 hPa East 3.2 km/h 6.4 km/h 60 % 0 mm
06:52 8.2 °C 0.9 °C 1023.2 hPa Calm   4.8 km/h 60 % 0 mm
06:57 8.2 °C 1.1 °C 1023.2 hPa Calm   4.8 km/h 61 % 0 mm
07:02 8.1 °C 1.3 °C 1023.2 hPa Calm   4.8 km/h 62 % 0 mm
07:07 8.1 °C 1.5 °C 1023.2 hPa Calm   4.8 km/h 63 % 0 mm
07:12 8 °C 1.4 °C 1023.2 hPa ESE 1.6 km/h 4.8 km/h 63 % 0 mm
07:17 7.9 °C 1.5 °C 1023.2 hPa Calm   4.8 km/h 64 % 0 mm
07:22 7.9 °C 1.5 °C 1023.2 hPa Calm   4.8 km/h 64 % 0 mm
07:27 7.9 °C 1.7 °C 1023.2 hPa Calm   4.8 km/h 65 % 0 mm
07:32 7.9 °C 1.5 °C 1023.2 hPa Calm   4.8 km/h 64 % 0 mm
07:37 7.9 °C 1.7 °C 1023.2 hPa Calm   3.2 km/h 65 % 0 mm
07:42 7.9 °C 1.7 °C 1023.2 hPa North 1.6 km/h 6.4 km/h 65 % 0 mm
07:47 7.9 °C 1.9 °C 1022.6 hPa East 3.2 km/h 6.4 km/h 66 % 0 mm
07:52 7.8 °C 2.1 °C 1022.6 hPa Calm   6.4 km/h 67 % 0 mm
07:57 7.7 °C 2.4 °C 1022.6 hPa ENE 4.8 km/h 9.7 km/h 69 % 0 mm
08:02 7.6 °C 2.3 °C 1022.6 hPa ESE 3.2 km/h 9.7 km/h 69 % 0 mm
08:07 7.6 °C 2.5 °C 1022.6 hPa ESE 3.2 km/h 9.7 km/h 70 % 0 mm
08:12 7.6 °C 2.5 °C 1022.2 hPa ENE 3.2 km/h 8 km/h 70 % 0 mm
08:17 7.6 °C 2.5 °C 1022.2 hPa East 3.2 km/h 8 km/h 70 % 0 mm
08:22 7.7 °C 2.8 °C 1022.2 hPa SE 6.4 km/h 9.7 km/h 71 % 0 mm
08:27 7.7 °C 2.6 °C 1022.2 hPa Calm   12.9 km/h 70 % 0 mm
08:32 7.7 °C 2.6 °C 1022.2 hPa ESE 3.2 km/h 12.9 km/h 70 % 0 mm
08:37 7.8 °C 2.9 °C 1022.2 hPa ESE 1.6 km/h 12.9 km/h 71 % 0 mm
08:42 7.8 °C 3.1 °C 1022.2 hPa ENE 1.6 km/h 9.7 km/h 72 % 0 mm
08:47 7.9 °C 3.2 °C 1022.2 hPa ENE 1.6 km/h 9.7 km/h 72 % 0 mm
08:52 7.9 °C 3.4 °C 1022.2 hPa Calm   9.7 km/h 73 % 0 mm
08:57 7.9 °C 3.6 °C 1022.2 hPa East 1.6 km/h 8 km/h 74 % 0 mm
09:02 7.9 °C 3.9 °C 1022.2 hPa Calm   8 km/h 76 % 0 mm
09:07 7.8 °C 4.2 °C 1022.2 hPa Calm   6.4 km/h 78 % 0 mm
09:12 7.8 °C 4.4 °C 1022.6 hPa Calm   6.4 km/h 79 % 0 mm
09:17 7.8 °C 4.6 °C 1022.6 hPa SE 3.2 km/h 6.4 km/h 80 % 0 mm
09:22 7.8 °C 4.6 °C 1022.2 hPa SSE 3.2 km/h 6.4 km/h 80 % 0 mm
09:27 7.9 °C 4.7 °C 1022.2 hPa SE 1.6 km/h 9.7 km/h 80 % 0 mm
09:32 8 °C 4.9 °C 1022.2 hPa Calm   9.7 km/h 81 % 0 mm
09:37 8.1 °C 5 °C 1022.2 hPa East 3.2 km/h 9.7 km/h 81 % 0 mm
09:42 8.2 °C 5.3 °C 1022.2 hPa SSE 1.6 km/h 6.4 km/h 82 % 0 mm
09:47 8.2 °C 5.1 °C 1022.2 hPa East 1.6 km/h 6.4 km/h 81 % 0 mm
09:52 8.3 °C 5.4 °C 1022.2 hPa ESE 1.6 km/h 6.4 km/h 82 % 0 mm
09:57 8.4 °C 5.3 °C 1021.9 hPa ENE 3.2 km/h 8 km/h 81 % 0 mm
10:02 8.6 °C 5.7 °C 1021.9 hPa Calm   8 km/h 82 % 0 mm
10:07 8.8 °C 5.9 °C 1021.9 hPa NNW 3.2 km/h 8 km/h 82 % 0 mm
10:12 9 °C 6.1 °C 1021.6 hPa Calm   11.3 km/h 82 % 0.25 mm
10:17 9.2 °C 6.1 °C 1021.9 hPa SE 1.6 km/h 12.9 km/h 81 % 0.25 mm
10:22 9.4 °C 6.3 °C 1021.9 hPa SSE 1.6 km/h 12.9 km/h 81 % 0.25 mm
10:27 9.5 °C 6.2 °C 1021.6 hPa SSW 1.6 km/h 14.5 km/h 80 % 0.25 mm
10:32 9.7 °C 6.4 °C 1021.9 hPa ESE 9.7 km/h 14.5 km/h 80 % 0.25 mm
10:37 9.8 °C 6.5 °C 1021.6 hPa ENE 8 km/h 14.5 km/h 80 % 0.25 mm
10:42 10.1 °C 7 °C 1021.6 hPa SE 6.4 km/h 14.5 km/h 81 % 0.25 mm
10:47 10.3 °C 7.2 °C 1021.6 hPa ESE 9.7 km/h 17.7 km/h 81 % 0.25 mm
10:52 10.6 °C 7.3 °C 1021.2 hPa South 14.5 km/h 17.7 km/h 80 % 0.25 mm
10:57 10.8 °C 7.5 °C 1021.2 hPa SE 11.3 km/h 19.3 km/h 80 % 0.25 mm
11:02 10.9 °C 7.6 °C 1020.9 hPa SE 14.5 km/h 20.9 km/h 80 % 0.25 mm
11:07 11.1 °C 7.8 °C 1020.9 hPa ESE 11.3 km/h 20.9 km/h 80 % 0 mm
11:12 11.3 °C 7.8 °C 1020.9 hPa ESE 9.7 km/h 20.9 km/h 79 % 0 mm
11:17 11.3 °C 8 °C 1020.5 hPa SE 6.4 km/h 19.3 km/h 80 % 0 mm
11:22 11.3 °C 8.2 °C 1020.5 hPa East 9.7 km/h 16.1 km/h 81 % 0 mm
11:27 11.3 °C 8.3 °C 1020.5 hPa SE 4.8 km/h 16.1 km/h 82 % 0 mm
11:32 11.2 °C 8.4 °C 1020.5 hPa East 8 km/h 20.9 km/h 83 % 0 mm
11:37 11.1 °C 8.5 °C 1020.2 hPa SSE 3.2 km/h 20.9 km/h 84 % 0 mm
11:42 10.9 °C 8.3 °C 1019.9 hPa ESE 4.8 km/h 20.9 km/h 84 % 0 mm
11:47 10.8 °C 8.4 °C 1019.9 hPa ESE 8 km/h 16.1 km/h 85 % 0 mm
11:52 10.7 °C 8.6 °C 1019.9 hPa ESE 4.8 km/h 16.1 km/h 87 % 0 mm
11:57 10.6 °C 8.5 °C 1019.9 hPa ESE 3.2 km/h 16.1 km/h 87 % 0 mm
12:02 10.5 °C 8.6 °C 1019.9 hPa South 6.4 km/h 11.3 km/h 88 % 0 mm
12:07 10.4 °C 8.7 °C 1019.9 hPa Calm   11.3 km/h 89 % 0 mm
12:12 10.5 °C 8.9 °C 1019.5 hPa ESE 3.2 km/h 11.3 km/h 90 % 0 mm
12:17 10.6 °C 9 °C 1019.2 hPa Calm   8 km/h 90 % 0 mm
12:22 10.7 °C 9.1 °C 1019.2 hPa ESE 1.6 km/h 4.8 km/h 90 % 0 mm
12:27 10.7 °C 9.1 °C 1018.8 hPa ESE 3.2 km/h 4.8 km/h 90 % 0.25 mm
12:32 10.7 °C 9.1 °C 1018.8 hPa East 1.6 km/h 6.4 km/h 90 % 0.25 mm
12:37 10.7 °C 9.1 °C 1018.8 hPa East 3.2 km/h 6.4 km/h 90 % 0.25 mm
12:42 10.7 °C 9.3 °C 1018.5 hPa Calm   6.4 km/h 91 % 0.25 mm
12:47 10.6 °C 9.2 °C 1018.5 hPa SE 1.6 km/h 4.8 km/h 91 % 0.25 mm
12:52 10.6 °C 9.2 °C 1018.5 hPa Calm   4.8 km/h 91 % 0.25 mm
12:57 10.6 °C 9.4 °C 1018.2 hPa Calm   4.8 km/h 92 % 0.25 mm
13:02 10.6 °C 9.4 °C 1018.2 hPa Calm   4.8 km/h 92 % 0.25 mm
13:07 10.6 °C 9.4 °C 1017.8 hPa Calm   3.2 km/h 92 % 0.51 mm
13:12 10.7 °C 9.6 °C 1017.8 hPa Calm   3.2 km/h 93 % 0.51 mm
13:17 10.7 °C 9.5 °C 1017.5 hPa Calm   3.2 km/h 92 % 0.51 mm
13:22 10.7 °C 9.6 °C 1017.5 hPa Calm   3.2 km/h 93 % 0.51 mm
13:27 10.7 °C 9.6 °C 1017.2 hPa ENE 1.6 km/h 3.2 km/h 93 % 0.25 mm
13:32 10.8 °C 9.7 °C 1017.2 hPa SE 1.6 km/h 3.2 km/h 93 % 0.25 mm
13:37 10.8 °C 9.7 °C 1016.8 hPa ESE 3.2 km/h 4.8 km/h 93 % 0.25 mm
13:42 10.9 °C 10 °C 1016.8 hPa East 1.6 km/h 4.8 km/h 94 % 0.25 mm
13:47 10.9 °C 9.8 °C 1016.5 hPa ENE 3.2 km/h 4.8 km/h 93 % 0.25 mm
13:52 10.9 °C 10 °C 1016.5 hPa Calm   4.8 km/h 94 % 0.25 mm
13:57 10.9 °C 10 °C 1016.1 hPa Calm   6.4 km/h 94 % 0.25 mm
14:03 11.1 °C 10.2 °C 1016.1 hPa ESE 1.6 km/h 6.4 km/h 94 % 0.25 mm
14:08 11.1 °C 10.2 °C 1016.1 hPa SSE 1.6 km/h 6.4 km/h 94 % 0 mm
14:13 11.1 °C 10.2 °C 1016.1 hPa SE 4.8 km/h 8 km/h 94 % 0 mm
14:17 11.1 °C 10.2 °C 1015.8 hPa ESE 1.6 km/h 8 km/h 94 % 0 mm
14:23 11.1 °C 10.2 °C 1015.8 hPa NE 3.2 km/h 8 km/h 94 % 0 mm
14:28 11.1 °C 10.2 °C 1015.5 hPa Calm   8 km/h 94 % 0 mm
14:33 11.1 °C 10.2 °C 1015.5 hPa ESE 3.2 km/h 8 km/h 94 % 0 mm
14:38 11.1 °C 10.2 °C 1015.5 hPa SSE 1.6 km/h 8 km/h 94 % 0 mm
14:43 11.2 °C 10.3 °C 1015.5 hPa ENE 3.2 km/h 8 km/h 94 % 0.25 mm
14:48 11.2 °C 10.4 °C 1015.5 hPa Calm   6.4 km/h 95 % 0.25 mm
14:53 11.2 °C 10.4 °C 1015.1 hPa ESE 1.6 km/h 6.4 km/h 95 % 0.25 mm
14:58 11.2 °C 10.4 °C 1015.1 hPa SE 1.6 km/h 4.8 km/h 95 % 0.25 mm
15:03 11.3 °C 10.5 °C 1014.8 hPa SE 1.6 km/h 6.4 km/h 95 % 0.25 mm
15:08 11.3 °C 10.5 °C 1014.8 hPa SSE 1.6 km/h 6.4 km/h 95 % 0.25 mm
15:13 11.3 °C 10.5 °C 1014.8 hPa Calm   6.4 km/h 95 % 0.25 mm
15:18 11.3 °C 10.5 °C 1014.4 hPa East 1.6 km/h 4.8 km/h 95 % 0.25 mm
15:23 11.4 °C 10.6 °C 1014.4 hPa East 1.6 km/h 4.8 km/h 95 % 0.25 mm
15:28 11.4 °C 10.6 °C 1014.4 hPa ESE 1.6 km/h 3.2 km/h 95 % 0.25 mm
15:33 11.4 °C 10.6 °C 1014.4 hPa SSE 1.6 km/h 3.2 km/h 95 % 0.51 mm
15:38 11.4 °C 10.6 °C 1014.4 hPa SE 3.2 km/h 3.2 km/h 95 % 0.76 mm
15:43 11.4 °C 10.6 °C 1014.4 hPa ESE 1.6 km/h 3.2 km/h 95 % 0.51 mm
15:48 11.4 °C 10.6 °C 1014.4 hPa Calm   3.2 km/h 95 % 0.51 mm
15:53 11.4 °C 10.6 °C 1014.4 hPa SE 1.6 km/h 3.2 km/h 95 % 0.51 mm
15:58 11.4 °C 10.6 °C 1014.4 hPa Calm   3.2 km/h 95 % 0.51 mm
16:03 11.5 °C 10.7 °C 1014.4 hPa East 1.6 km/h 1.6 km/h 95 % 0.51 mm
16:08 11.5 °C 10.9 °C 1014.4 hPa Calm   4.8 km/h 96 % 0.51 mm
16:13 11.5 °C 10.9 °C 1014.1 hPa East 1.6 km/h 4.8 km/h 96 % 0.51 mm
16:18 11.5 °C 10.9 °C 1014.1 hPa Calm   4.8 km/h 96 % 0.51 mm
16:23 11.5 °C 10.9 °C 1014.1 hPa Calm   4.8 km/h 96 % 0.51 mm
16:28 11.5 °C 10.9 °C 1014.4 hPa Calm   4.8 km/h 96 % 0.25 mm
16:33 11.5 °C 10.9 °C 1014.4 hPa Calm   3.2 km/h 96 % 0.51 mm
16:38 11.6 °C 11 °C 1014.4 hPa Calm   3.2 km/h 96 % 0.25 mm
16:43 11.6 °C 11 °C 1014.1 hPa Calm   1.6 km/h 96 % 0.25 mm
16:48 11.6 °C 11 °C 1014.1 hPa Calm   3.2 km/h 96 % 0.25 mm
16:53 11.6 °C 11 °C 1014.1 hPa ESE 1.6 km/h 3.2 km/h 96 % 0.25 mm
16:58 11.6 °C 11 °C 1013.8 hPa Calm   3.2 km/h 96 % 0.25 mm
17:03 11.6 °C 11 °C 1013.8 hPa Calm   3.2 km/h 96 % 0.25 mm
17:08 11.6 °C 11 °C 1013.8 hPa Calm   3.2 km/h 96 % 0.25 mm
17:13 11.6 °C 11 °C 1013.8 hPa Calm   3.2 km/h 96 % 0.25 mm
17:18 11.7 °C 11.1 °C 1013.8 hPa East 1.6 km/h 3.2 km/h 96 % 0.25 mm
17:23 11.7 °C 11.1 °C 1013.4 hPa East 1.6 km/h 4.8 km/h 96 % 0.25 mm
17:28 11.7 °C 11.1 °C 1013.4 hPa Calm   4.8 km/h 96 % 0.25 mm
17:33 11.7 °C 11.1 °C 1013.1 hPa Calm   4.8 km/h 96 % 0 mm
17:38 11.7 °C 11.2 °C 1013.1 hPa East 1.6 km/h 4.8 km/h 97 % 0 mm
17:43 11.8 °C 11.3 °C 1013.1 hPa East 3.2 km/h 3.2 km/h 97 % 0 mm
17:48 11.8 °C 11.3 °C 1013.1 hPa Calm   4.8 km/h 97 % 0 mm
17:53 11.8 °C 11.3 °C 1013.1 hPa Calm   4.8 km/h 97 % 0 mm
17:58 11.8 °C 11.3 °C 1013.1 hPa Calm   4.8 km/h 97 % 0 mm
18:03 11.8 °C 11.3 °C 1012.8 hPa East 1.6 km/h 1.6 km/h 97 % 0 mm
18:08 11.8 °C 11.3 °C 1012.8 hPa SE 1.6 km/h 3.2 km/h 97 % 0 mm
18:13 11.8 °C 11.3 °C 1012.8 hPa Calm   3.2 km/h 97 % 0 mm
18:18 11.8 °C 11.3 °C 1012.8 hPa Calm   4.8 km/h 97 % 0 mm
18:23 11.8 °C 11.3 °C 1012.8 hPa Calm   4.8 km/h 97 % 0 mm
18:28 11.8 °C 11.3 °C 1013.1 hPa Calm   4.8 km/h 97 % 0 mm
18:33 11.8 °C 11.3 °C 1012.8 hPa ESE 1.6 km/h 3.2 km/h 97 % 0 mm
18:38 11.8 °C 11.3 °C 1012.8 hPa Calm   3.2 km/h 97 % 0 mm
18:43 11.9 °C 11.4 °C 1012.8 hPa SE 1.6 km/h 3.2 km/h 97 % 0 mm
18:48 11.9 °C 11.4 °C 1012.8 hPa Calm   3.2 km/h 97 % 0 mm
18:53 11.9 °C 11.4 °C 1012.8 hPa Calm   3.2 km/h 97 % 0 mm
18:58 11.9 °C 11.4 °C 1013.1 hPa Calm   3.2 km/h 97 % 0 mm
19:03 11.9 °C 11.4 °C 1013.1 hPa Calm   3.2 km/h 97 % 0 mm
19:08 12 °C 11.5 °C 1012.8 hPa Calm   3.2 km/h 97 % 0 mm
19:13 12 °C 11.5 °C 1012.8 hPa Calm   3.2 km/h 97 % 0 mm
19:18 11.9 °C 11.4 °C 1012.8 hPa Calm   3.2 km/h 97 % 0 mm
19:23 11.9 °C 11.4 °C 1012.8 hPa East 1.6 km/h 3.2 km/h 97 % 0 mm
19:28 11.9 °C 11.4 °C 1012.8 hPa Calm   3.2 km/h 97 % 0 mm
19:33 12 °C 11.5 °C 1012.4 hPa ESE 1.6 km/h 4.8 km/h 97 % 0 mm
19:38 12 °C 11.5 °C 1012.8 hPa Calm   4.8 km/h 97 % 0 mm
19:43 12 °C 11.5 °C 1012.4 hPa ESE 3.2 km/h 6.4 km/h 97 % 0 mm
19:48 12 °C 11.5 °C 1012.4 hPa SE 3.2 km/h 6.4 km/h 97 % 0 mm
19:53 12 °C 11.5 °C 1012.4 hPa Calm   6.4 km/h 97 % 0.25 mm
19:58 12.1 °C 11.6 °C 1012.4 hPa ESE 1.6 km/h 4.8 km/h 97 % 0.25 mm
20:03 12.1 °C 11.6 °C 1012.1 hPa SSE 1.6 km/h 4.8 km/h 97 % 0.25 mm
20:08 12.1 °C 11.8 °C 1012.1 hPa SE 1.6 km/h 4.8 km/h 98 % 0.25 mm
20:13 12.1 °C 11.8 °C 1012.1 hPa East 1.6 km/h 9.7 km/h 98 % 0.25 mm
20:18 12.1 °C 11.8 °C 1012.1 hPa ESE 3.2 km/h 9.7 km/h 98 % 0.25 mm
20:23 12.1 °C 11.8 °C 1012.4 hPa East 1.6 km/h 9.7 km/h 98 % 0.25 mm
20:28 12.1 °C 11.8 °C 1012.4 hPa ESE 1.6 km/h 9.7 km/h 98 % 0.25 mm
20:33 12.1 °C 11.8 °C 1012.4 hPa SE 1.6 km/h 8 km/h 98 % 0.25 mm
20:38 12.1 °C 11.8 °C 1012.4 hPa Calm   6.4 km/h 98 % 0.25 mm
20:43 12.1 °C 11.8 °C 1012.4 hPa Calm   4.8 km/h 98 % 0.25 mm
20:48 12.2 °C 11.9 °C 1012.4 hPa Calm   4.8 km/h 98 % 0 mm
20:53 12.2 °C 11.9 °C 1012.4 hPa Calm   3.2 km/h 98 % 0 mm
20:58 12.2 °C 11.9 °C 1012.4 hPa Calm   1.6 km/h 98 % 0 mm
21:03 12.2 °C 11.9 °C 1012.8 hPa Calm   1.6 km/h 98 % 0 mm
21:08 12.2 °C 11.9 °C 1012.8 hPa Calm   1.6 km/h 98 % 0 mm
21:13 12.2 °C 11.9 °C 1012.4 hPa SE 1.6 km/h 1.6 km/h 98 % 0 mm
21:18 12.2 °C 11.9 °C 1012.1 hPa SE 4.8 km/h 4.8 km/h 98 % 0 mm
21:23 12.2 °C 11.9 °C 1011.7 hPa ESE 4.8 km/h 6.4 km/h 98 % 0 mm
21:28 12.3 °C 12 °C 1011.7 hPa SE 3.2 km/h 8 km/h 98 % 0 mm
21:33 12.3 °C 12 °C 1011.7 hPa SE 1.6 km/h 8 km/h 98 % 0 mm
21:38 12.3 °C 12 °C 1012.1 hPa NNW 1.6 km/h 8 km/h 98 % 0 mm
21:43 12.3 °C 12 °C 1012.1 hPa Calm   8 km/h 98 % 0 mm
21:48 12.3 °C 12 °C 1012.1 hPa Calm   8 km/h 98 % 0 mm
21:53 12.3 °C 12 °C 1012.1 hPa Calm   1.6 km/h 98 % 0 mm
21:58 12.3 °C 12 °C 1012.4 hPa Calm   1.6 km/h 98 % 0 mm
22:03 12.4 °C 12.1 °C 1012.1 hPa Calm   1.6 km/h 98 % 0 mm
22:08 12.4 °C 12.1 °C 1012.1 hPa Calm   1.6 km/h 98 % 0 mm
22:13 12.4 °C 12.1 °C 1012.1 hPa SE 1.6 km/h 1.6 km/h 98 % 0 mm
22:18 12.5 °C 12.2 °C 1011.7 hPa SE 1.6 km/h 3.2 km/h 98 % 0 mm
22:24 12.6 °C 12.3 °C 1011.7 hPa ESE 1.6 km/h 4.8 km/h 98 % 0 mm
22:29 12.6 °C 12.3 °C 1011.7 hPa SE 1.6 km/h 4.8 km/h 98 % 0 mm
22:34 12.6 °C 12.3 °C 1011.7 hPa SSE 3.2 km/h 4.8 km/h 98 % 0 mm
22:38 12.6 °C 12.3 °C 1011.7 hPa SW 3.2 km/h 4.8 km/h 98 % 0 mm
22:43 12.6 °C 12.3 °C 1011.7 hPa Calm   4.8 km/h 98 % 0 mm
22:49 12.6 °C 12.3 °C 1012.1 hPa Calm   4.8 km/h 98 % 0 mm
22:54 12.7 °C 12.4 °C 1012.1 hPa Calm   4.8 km/h 98 % 0 mm
22:59 12.7 °C 12.4 °C 1012.1 hPa Calm   3.2 km/h 98 % 0 mm
23:04 12.7 °C 12.4 °C 1012.1 hPa Calm   3.2 km/h 98 % 0 mm
23:09 12.7 °C 12.4 °C 1012.1 hPa Calm   1.6 km/h 98 % 0 mm
23:14 12.7 °C 12.4 °C 1012.1 hPa Calm     98 % 0 mm
23:19 12.7 °C 12.4 °C 1012.1 hPa Calm     98 % 0 mm
23:24 12.7 °C 12.5 °C 1012.4 hPa Calm     99 % 0 mm
23:29 12.7 °C 12.5 °C 1012.4 hPa Calm   1.6 km/h 99 % 0 mm
23:34 12.8 °C 12.6 °C 1012.1 hPa Calm   1.6 km/h 99 % 0 mm
23:39 12.8 °C 12.6 °C 1012.1 hPa Calm   1.6 km/h 99 % 0 mm
23:44 12.7 °C 12.5 °C 1012.1 hPa Calm   1.6 km/h 99 % 0 mm
23:49 12.7 °C 12.5 °C 1012.1 hPa Calm   1.6 km/h 99 % 0 mm
23:54 12.8 °C 12.6 °C 1011.7 hPa Calm   1.6 km/h 99 % 0 mm
23:59 12.8 °C 12.6 °C 1012.4 hPa WNW 3.2 km/h 3.2 km/h 99 % 0 mm
Spring, Texas: Villages of Bridgestone
Compliments of Weather Underground - 2.75 mb

Script developed by  Jim McMurry - jmcmurry@mwt.net Adapted for the template by  Wim van der Kuil - Leuven-Template.eu

You find our weather info also at:

UK Metoffice

WeatherCloud

Weather Underground

Mid-South Weather Network

AWEKAS

Citizen Weather Observer Program (CWOP)

HAMweather, WeatherForYou, PWS Weather

Equipment we use:

Weather-station
Davis Vantage Vue

Weather-program
Meteohub

Weather-server
Debian 7.9 x86 (Guest)

Provider
DreamHost

Davis Vantage Vue

Meteohub

Debian 7.9 x86 (Guest)

DreamHost